Year,Month,Day,Hour,Minute,Value (Times are PST for temperature in C)
2008,12,08,00,00,1.10
2008,12,08,00,01,1.10
2008,12,08,00,02,1.10
2008,12,08,00,03,1.10
2008,12,08,00,04,1.10
2008,12,08,00,05,1.10
2008,12,08,00,06,1.10
2008,12,08,00,07,1.10
2008,12,08,00,08,1.10
2008,12,08,00,09,1.10
2008,12,08,00,10,1.10
2008,12,08,00,11,1.10
2008,12,08,00,12,1.10
2008,12,08,00,13,1.10
2008,12,08,01,02,0.70
2008,12,08,01,03,0.60
2008,12,08,01,04,0.60
2008,12,08,01,05,0.60
2008,12,08,01,06,0.60
2008,12,08,01,07,0.60
2008,12,08,01,08,0.60
2008,12,08,01,09,0.60
2008,12,08,01,10,0.50
2008,12,08,01,11,0.50
2008,12,08,01,12,0.50
2008,12,08,01,13,0.40
2008,12,08,01,14,0.40
2008,12,08,01,15,0.40
2008,12,08,01,16,0.40
2008,12,08,01,17,0.40
2008,12,08,01,18,0.40
2008,12,08,01,19,0.40
2008,12,08,01,20,0.40
2008,12,08,01,21,0.40
2008,12,08,01,22,0.40
2008,12,08,01,23,0.40
2008,12,08,01,24,0.40
2008,12,08,01,25,0.40
2008,12,08,01,26,0.30
2008,12,08,01,27,0.30
2008,12,08,01,28,0.30
2008,12,08,01,29,0.30
2008,12,08,01,30,0.30
2008,12,08,01,31,0.30
2008,12,08,01,32,0.30
2008,12,08,01,33,0.30
2008,12,08,01,34,0.30
2008,12,08,01,35,0.30
2008,12,08,01,36,0.30
2008,12,08,01,37,0.30
2008,12,08,01,38,0.20
2008,12,08,01,39,0.20
2008,12,08,01,40,0.20
2008,12,08,01,41,0.30
2008,12,08,01,42,0.30
2008,12,08,01,43,0.30
2008,12,08,01,44,0.30
2008,12,08,01,45,0.30
2008,12,08,01,46,0.30
2008,12,08,01,47,0.30
2008,12,08,01,48,0.30
2008,12,08,01,49,0.30
2008,12,08,01,50,0.20
2008,12,08,01,51,0.20
2008,12,08,01,52,0.20
2008,12,08,01,53,0.20
2008,12,08,01,54,0.20
2008,12,08,01,55,0.20
2008,12,08,01,56,0.20
2008,12,08,01,57,0.20
2008,12,08,01,58,0.10
2008,12,08,01,59,0.10
2008,12,08,02,00,0.10
2008,12,08,02,01,0.10
2008,12,08,02,02,0.10
2008,12,08,02,03,0.10
2008,12,08,02,04,0.10
2008,12,08,02,05,0.10
2008,12,08,02,06,0.10
2008,12,08,02,07,0.10
2008,12,08,02,08,0.10
2008,12,08,02,09,0.10
2008,12,08,02,10,0.10
2008,12,08,02,11,0.10
2008,12,08,02,12,0.20
2008,12,08,02,13,0.20
2008,12,08,02,14,0.20
2008,12,08,02,15,0.20
2008,12,08,02,16,0.30
2008,12,08,02,17,0.30
2008,12,08,02,18,0.30
2008,12,08,02,19,0.40
2008,12,08,02,20,0.40
2008,12,08,02,21,0.40
2008,12,08,02,22,0.40
2008,12,08,02,23,0.40
2008,12,08,02,24,0.40
2008,12,08,02,25,0.40
2008,12,08,02,26,0.40
2008,12,08,02,27,0.40
2008,12,08,02,28,0.40
2008,12,08,02,29,0.40
2008,12,08,02,30,0.40
2008,12,08,02,31,0.40
2008,12,08,02,32,0.40
2008,12,08,02,33,0.40
2008,12,08,02,34,0.40
2008,12,08,02,35,0.40
2008,12,08,02,36,0.40
2008,12,08,02,37,0.40
2008,12,08,02,38,0.40
2008,12,08,02,39,0.40
2008,12,08,02,40,0.40
2008,12,08,02,41,0.40
2008,12,08,02,42,0.40
2008,12,08,02,43,0.40
2008,12,08,02,44,0.40
2008,12,08,02,45,0.50
2008,12,08,02,46,0.50
2008,12,08,02,47,0.50
2008,12,08,02,48,0.50
2008,12,08,02,49,0.50
2008,12,08,02,50,0.50
2008,12,08,02,51,0.50
2008,12,08,02,52,0.50
2008,12,08,02,53,0.50
2008,12,08,02,54,0.50
2008,12,08,02,55,0.60
2008,12,08,02,56,0.60
2008,12,08,02,57,0.60
2008,12,08,02,58,0.60
2008,12,08,02,59,0.60
2008,12,08,03,00,0.70
2008,12,08,03,01,0.70
2008,12,08,03,02,0.70
2008,12,08,03,03,0.70
2008,12,08,03,04,0.70
2008,12,08,03,05,0.70
2008,12,08,03,06,0.70
2008,12,08,03,07,0.70
2008,12,08,03,08,0.70
2008,12,08,03,09,0.70
2008,12,08,03,10,0.70
2008,12,08,03,11,0.70
2008,12,08,03,12,0.70
2008,12,08,03,13,0.80
2008,12,08,03,14,0.80
2008,12,08,03,15,0.80
2008,12,08,03,16,0.80
2008,12,08,03,17,0.80
2008,12,08,03,18,0.80
2008,12,08,03,19,0.90
2008,12,08,03,20,0.90
2008,12,08,03,21,0.90
2008,12,08,03,22,0.90
2008,12,08,03,23,1.00
2008,12,08,03,24,1.00
2008,12,08,03,25,1.10
2008,12,08,03,26,1.10
2008,12,08,03,27,1.20
2008,12,08,03,28,1.20
2008,12,08,03,29,1.20
2008,12,08,03,30,1.30
2008,12,08,03,31,1.30
2008,12,08,03,32,1.30
2008,12,08,03,33,1.30
2008,12,08,03,34,1.30
2008,12,08,03,35,1.30
2008,12,08,03,36,1.30
2008,12,08,03,37,1.30
2008,12,08,03,38,1.30
2008,12,08,03,39,1.30
2008,12,08,03,40,1.30
2008,12,08,03,41,1.30
2008,12,08,03,42,1.30
2008,12,08,03,43,1.30
2008,12,08,03,44,1.30
2008,12,08,03,45,1.30
2008,12,08,03,46,1.30
2008,12,08,03,47,1.30
2008,12,08,03,48,1.30
2008,12,08,03,49,1.30
2008,12,08,03,50,1.30
2008,12,08,03,51,1.40
2008,12,08,03,52,1.40
2008,12,08,03,53,1.50
2008,12,08,03,54,1.50
2008,12,08,03,55,1.50
2008,12,08,03,56,1.50
2008,12,08,03,57,1.50
2008,12,08,03,58,1.50
2008,12,08,03,59,1.60
2008,12,08,04,00,1.60
2008,12,08,04,01,1.60
2008,12,08,04,02,1.60
2008,12,08,04,03,1.60
2008,12,08,04,04,1.60
2008,12,08,04,05,1.60
2008,12,08,04,06,1.60
2008,12,08,04,07,1.60
2008,12,08,04,08,1.70
2008,12,08,04,09,1.70
2008,12,08,04,10,1.70
2008,12,08,04,11,1.70
2008,12,08,04,12,1.70
2008,12,08,04,13,1.70
2008,12,08,04,14,1.70
2008,12,08,04,15,1.70
2008,12,08,04,16,1.70
2008,12,08,04,17,1.70
2008,12,08,04,18,1.70
2008,12,08,04,19,1.70
2008,12,08,04,20,1.70
2008,12,08,04,21,1.70
2008,12,08,04,22,1.80
2008,12,08,04,23,1.80
2008,12,08,04,24,1.80
2008,12,08,04,25,1.80
2008,12,08,04,26,1.80
2008,12,08,04,27,1.80
2008,12,08,04,28,1.80
2008,12,08,04,29,1.80
2008,12,08,04,30,1.80
2008,12,08,04,31,1.80
2008,12,08,04,32,1.80
2008,12,08,04,33,1.80
2008,12,08,04,34,1.80
2008,12,08,04,35,1.80
2008,12,08,04,36,1.80
2008,12,08,04,37,1.80
2008,12,08,04,38,1.80
2008,12,08,04,39,1.80
2008,12,08,04,40,1.80
2008,12,08,04,41,1.80
2008,12,08,04,42,1.80
2008,12,08,04,43,1.80
2008,12,08,04,44,1.80
2008,12,08,04,45,1.80
2008,12,08,04,46,1.80
2008,12,08,04,47,1.90
2008,12,08,04,48,1.90
2008,12,08,04,49,1.90
2008,12,08,04,50,1.90
2008,12,08,04,51,1.90
2008,12,08,04,52,1.90
2008,12,08,04,53,1.90
2008,12,08,04,54,1.90
2008,12,08,04,55,1.90
2008,12,08,04,56,1.90
2008,12,08,04,57,2.00
2008,12,08,04,58,2.00
2008,12,08,04,59,2.00
2008,12,08,05,00,2.10
2008,12,08,05,01,2.10
2008,12,08,05,02,2.10
2008,12,08,05,03,2.10
2008,12,08,05,04,2.10
2008,12,08,05,05,2.10
2008,12,08,05,06,2.10
2008,12,08,05,07,2.10
2008,12,08,05,08,2.20
2008,12,08,05,09,2.20
2008,12,08,05,10,2.20
2008,12,08,05,11,2.20
2008,12,08,05,12,2.20
2008,12,08,05,13,2.20
2008,12,08,05,14,2.20
2008,12,08,05,15,2.20
2008,12,08,05,16,2.20
2008,12,08,05,17,2.10
2008,12,08,05,18,2.10
2008,12,08,05,19,2.10
2008,12,08,05,20,2.10
2008,12,08,05,21,2.10
2008,12,08,05,22,2.10
2008,12,08,05,23,2.10
2008,12,08,05,24,2.10
2008,12,08,05,25,2.10
2008,12,08,05,26,2.10
2008,12,08,05,27,2.00
2008,12,08,05,28,2.00
2008,12,08,05,29,2.00
2008,12,08,05,30,2.00
2008,12,08,05,31,2.00
2008,12,08,05,32,2.00
2008,12,08,05,33,2.00
2008,12,08,05,34,2.00
2008,12,08,05,35,2.00
2008,12,08,05,36,2.00
2008,12,08,05,37,2.00
2008,12,08,05,38,2.00
2008,12,08,05,39,2.00
2008,12,08,05,40,2.00
2008,12,08,05,41,2.00
2008,12,08,05,42,2.00
2008,12,08,05,43,2.00
2008,12,08,05,44,2.00
2008,12,08,05,45,2.00
2008,12,08,05,46,2.00
2008,12,08,05,47,2.10
2008,12,08,05,48,2.10
2008,12,08,05,49,2.10
2008,12,08,05,50,2.10
2008,12,08,05,51,2.10
2008,12,08,05,52,2.10
2008,12,08,05,53,2.20
2008,12,08,05,54,2.20
2008,12,08,05,55,2.20
2008,12,08,05,56,2.20
2008,12,08,05,57,2.20
2008,12,08,05,58,2.20
2008,12,08,05,59,2.20
2008,12,08,06,00,2.20
2008,12,08,06,01,2.20
2008,12,08,06,02,2.20
2008,12,08,06,03,2.20
2008,12,08,06,04,2.20
2008,12,08,06,05,2.20
2008,12,08,06,06,2.20
2008,12,08,06,07,2.20
2008,12,08,06,08,2.20
2008,12,08,06,09,2.20
2008,12,08,06,10,2.20
2008,12,08,06,11,2.20
2008,12,08,06,12,2.20
2008,12,08,06,13,2.20
2008,12,08,06,14,2.20
2008,12,08,06,15,2.20
2008,12,08,06,16,2.20
2008,12,08,06,17,2.20
2008,12,08,06,18,2.20
2008,12,08,06,19,2.20
2008,12,08,06,20,2.20
2008,12,08,06,21,2.20
2008,12,08,06,22,2.20
2008,12,08,06,23,2.20
2008,12,08,06,24,2.20
2008,12,08,06,25,2.20
2008,12,08,06,26,2.20
2008,12,08,06,27,2.20
2008,12,08,06,28,2.20
2008,12,08,06,29,2.20
2008,12,08,06,30,2.20
2008,12,08,06,31,2.20
2008,12,08,06,32,2.20
2008,12,08,06,33,2.20
2008,12,08,06,34,2.20
2008,12,08,06,35,2.20
2008,12,08,06,36,2.20
2008,12,08,06,37,2.20
2008,12,08,06,38,2.20
2008,12,08,06,39,2.20
2008,12,08,06,40,2.20
2008,12,08,06,41,2.20
2008,12,08,06,42,2.30
2008,12,08,06,43,2.30
2008,12,08,06,44,2.30
2008,12,08,06,45,2.30
2008,12,08,06,46,2.30
2008,12,08,06,47,2.30
2008,12,08,06,48,2.30
2008,12,08,06,49,2.30
2008,12,08,06,50,2.30
2008,12,08,06,51,2.30
2008,12,08,06,52,2.30
2008,12,08,06,53,2.30
2008,12,08,06,54,2.30
2008,12,08,06,55,2.30
2008,12,08,06,56,2.30
2008,12,08,06,57,2.30
2008,12,08,06,58,2.30
2008,12,08,06,59,2.30
2008,12,08,07,00,2.30
2008,12,08,07,01,2.30
2008,12,08,07,02,2.30
2008,12,08,07,03,2.30
2008,12,08,07,04,2.30
2008,12,08,07,05,2.30
2008,12,08,07,06,2.40
2008,12,08,07,07,2.40
2008,12,08,07,08,2.40
2008,12,08,07,09,2.40
2008,12,08,07,10,2.40
2008,12,08,07,11,2.40
2008,12,08,07,12,2.40
2008,12,08,07,13,2.40
2008,12,08,07,14,2.40
2008,12,08,07,15,2.40
2008,12,08,07,16,2.40
2008,12,08,07,17,2.50
2008,12,08,07,18,2.50
2008,12,08,07,19,2.50
2008,12,08,07,20,2.50
2008,12,08,07,21,2.50
2008,12,08,07,22,2.50
2008,12,08,07,23,2.60
2008,12,08,07,24,2.60
2008,12,08,07,25,2.60
2008,12,08,07,26,2.60
2008,12,08,07,27,2.60
2008,12,08,07,28,2.60
2008,12,08,07,29,2.60
2008,12,08,07,30,2.70
2008,12,08,07,31,2.70
2008,12,08,07,32,2.70
2008,12,08,07,33,2.70
2008,12,08,07,34,2.70
2008,12,08,07,35,2.70
2008,12,08,07,36,2.70
2008,12,08,07,37,2.70
2008,12,08,07,38,2.70
2008,12,08,07,39,2.70
2008,12,08,07,40,2.70
2008,12,08,07,41,2.70
2008,12,08,07,42,2.80
2008,12,08,07,43,2.80
2008,12,08,07,44,2.80
2008,12,08,07,45,2.80
2008,12,08,07,46,2.80
2008,12,08,07,47,2.80
2008,12,08,07,48,2.80
2008,12,08,07,49,2.80
2008,12,08,07,50,2.80
2008,12,08,07,51,2.80
2008,12,08,07,52,2.80
2008,12,08,07,53,2.80
2008,12,08,07,54,2.80
2008,12,08,07,55,2.80
2008,12,08,07,56,2.80
2008,12,08,07,57,2.80
2008,12,08,07,58,2.80
2008,12,08,07,59,2.80
2008,12,08,08,00,2.80
2008,12,08,08,01,2.90
2008,12,08,08,02,2.90
2008,12,08,08,03,2.90
2008,12,08,08,04,2.90
2008,12,08,08,05,2.90
2008,12,08,08,06,2.90
2008,12,08,08,07,2.90
2008,12,08,08,08,2.90
2008,12,08,08,09,3.00
2008,12,08,08,10,3.00
2008,12,08,08,11,3.00
2008,12,08,08,12,3.00
2008,12,08,08,13,3.00
2008,12,08,08,14,3.10
2008,12,08,08,15,3.10
2008,12,08,08,16,3.10
2008,12,08,08,17,3.10
2008,12,08,08,18,3.10
2008,12,08,08,19,3.10
2008,12,08,08,20,3.10
2008,12,08,08,21,3.10
2008,12,08,08,22,3.10
2008,12,08,08,23,3.10
2008,12,08,08,24,3.10
2008,12,08,08,25,3.10
2008,12,08,08,26,3.10
2008,12,08,08,27,3.10
2008,12,08,08,28,3.20
2008,12,08,08,29,3.20
2008,12,08,08,30,3.20
2008,12,08,08,31,3.20
2008,12,08,08,32,3.20
2008,12,08,08,33,3.20
2008,12,08,08,34,3.30
2008,12,08,08,35,3.30
2008,12,08,08,36,3.30
2008,12,08,08,37,3.30
2008,12,08,08,38,3.30
2008,12,08,08,39,3.30
2008,12,08,08,40,3.30
2008,12,08,08,41,3.30
2008,12,08,08,42,3.30
2008,12,08,08,43,3.30
2008,12,08,08,44,3.40
2008,12,08,08,45,3.40
2008,12,08,08,46,3.40
2008,12,08,08,47,3.50
2008,12,08,08,48,3.50
2008,12,08,08,49,3.50
2008,12,08,08,50,3.50
2008,12,08,08,51,3.60
2008,12,08,08,52,3.60
2008,12,08,08,53,3.60
2008,12,08,08,54,3.60
2008,12,08,08,55,3.70
2008,12,08,08,56,3.70
2008,12,08,08,57,3.70
2008,12,08,08,58,3.70
2008,12,08,08,59,3.80
2008,12,08,09,00,3.80
2008,12,08,09,01,3.80
2008,12,08,09,02,3.80
2008,12,08,09,03,3.80
2008,12,08,09,04,3.80
2008,12,08,09,05,3.80
2008,12,08,09,06,3.80
2008,12,08,09,07,3.80
2008,12,08,09,08,3.80
2008,12,08,09,09,3.80
2008,12,08,09,10,3.80
2008,12,08,09,11,3.80
2008,12,08,09,12,3.90
2008,12,08,09,13,3.90
2008,12,08,09,14,3.90
2008,12,08,09,15,3.90
2008,12,08,09,16,3.90
2008,12,08,09,17,3.90
2008,12,08,09,18,3.90
2008,12,08,09,19,4.00
2008,12,08,09,20,4.00
2008,12,08,09,21,4.00
2008,12,08,09,22,4.00
2008,12,08,09,23,4.10
2008,12,08,09,24,4.10
2008,12,08,09,25,4.10
2008,12,08,09,26,4.10
2008,12,08,09,27,4.10
2008,12,08,09,28,4.10
2008,12,08,09,29,4.10
2008,12,08,09,30,4.20
2008,12,08,09,31,4.20
2008,12,08,09,32,4.20
2008,12,08,09,33,4.20
2008,12,08,09,34,4.20
2008,12,08,09,35,4.30
2008,12,08,09,36,4.30
2008,12,08,09,37,4.30
2008,12,08,09,38,4.30
2008,12,08,09,39,4.30
2008,12,08,09,40,4.30
2008,12,08,09,41,4.40
2008,12,08,09,42,4.40
2008,12,08,09,43,4.40
2008,12,08,09,44,4.40
2008,12,08,09,45,4.40
2008,12,08,09,46,4.50
2008,12,08,09,47,4.50
2008,12,08,09,48,4.60
2008,12,08,09,49,4.60
2008,12,08,09,50,4.60
2008,12,08,09,51,4.60
2008,12,08,09,52,4.70
2008,12,08,09,53,4.70
2008,12,08,09,54,4.70
2008,12,08,09,55,4.70
2008,12,08,09,56,4.80
2008,12,08,09,57,4.80
2008,12,08,09,58,4.80
2008,12,08,09,59,4.90
2008,12,08,10,00,4.90
2008,12,08,10,01,5.00
2008,12,08,10,02,5.00
2008,12,08,10,03,5.10
2008,12,08,10,04,5.10
2008,12,08,10,05,5.20
2008,12,08,10,06,5.20
2008,12,08,10,07,5.30
2008,12,08,10,08,5.30
2008,12,08,10,09,5.40
2008,12,08,10,10,5.40
2008,12,08,10,11,5.50
2008,12,08,10,12,5.50
2008,12,08,10,13,5.50
2008,12,08,10,14,5.60
2008,12,08,10,15,5.60
2008,12,08,10,16,5.60
2008,12,08,10,17,5.70
2008,12,08,10,18,5.70
2008,12,08,10,19,5.70
2008,12,08,10,20,5.70
2008,12,08,10,21,5.80
2008,12,08,10,22,5.80
2008,12,08,10,23,5.80
2008,12,08,10,24,5.80
2008,12,08,10,25,5.80
2008,12,08,10,26,5.80
2008,12,08,10,27,5.80
2008,12,08,10,28,5.80
2008,12,08,10,29,5.80
2008,12,08,10,30,5.80
2008,12,08,10,31,5.80
2008,12,08,10,32,5.80
2008,12,08,10,33,5.80
2008,12,08,10,34,5.90
2008,12,08,10,35,5.90
2008,12,08,10,36,5.90
2008,12,08,10,37,5.90
2008,12,08,10,38,6.00
2008,12,08,10,39,6.10
2008,12,08,10,40,6.10
2008,12,08,10,41,6.10
2008,12,08,10,42,6.10
2008,12,08,10,43,6.20
2008,12,08,10,44,6.20
2008,12,08,10,45,6.20
2008,12,08,10,46,6.30
2008,12,08,10,47,6.30
2008,12,08,10,48,6.30
2008,12,08,10,49,6.30
2008,12,08,10,50,6.30
2008,12,08,10,51,6.30
2008,12,08,10,52,6.30
2008,12,08,10,53,6.40
2008,12,08,10,54,6.40
2008,12,08,10,55,6.40
2008,12,08,10,56,6.40
2008,12,08,10,57,6.40
2008,12,08,10,58,6.40
2008,12,08,10,59,6.30
2008,12,08,11,00,6.30
2008,12,08,11,01,6.30
2008,12,08,11,02,6.30
2008,12,08,11,03,6.30
2008,12,08,11,04,6.40
2008,12,08,11,05,6.40
2008,12,08,11,06,6.40
2008,12,08,11,07,6.40
2008,12,08,11,08,6.40
2008,12,08,11,09,6.40
2008,12,08,11,10,6.40
2008,12,08,11,11,6.40
2008,12,08,11,12,6.40
2008,12,08,11,13,6.40
2008,12,08,11,14,6.40
2008,12,08,11,15,6.40
2008,12,08,11,16,6.40
2008,12,08,11,17,6.40
2008,12,08,11,18,6.40
2008,12,08,11,19,6.40
2008,12,08,11,20,6.40
2008,12,08,11,21,6.40
2008,12,08,11,22,6.40
2008,12,08,11,23,6.40
2008,12,08,11,24,6.40
2008,12,08,11,25,6.40
2008,12,08,11,26,6.40
2008,12,08,11,27,6.40
2008,12,08,11,28,6.50
2008,12,08,11,29,6.50
2008,12,08,11,30,6.50
2008,12,08,11,31,6.60
2008,12,08,11,32,6.60
2008,12,08,11,33,6.60
2008,12,08,11,34,6.60
2008,12,08,11,35,6.60
2008,12,08,11,36,6.70
2008,12,08,11,37,6.70
2008,12,08,11,38,6.70
2008,12,08,11,39,6.80
2008,12,08,11,40,6.80
2008,12,08,11,41,6.80
2008,12,08,11,42,6.80
2008,12,08,11,43,6.80
2008,12,08,11,44,6.80
2008,12,08,11,45,6.80
2008,12,08,11,46,6.80
2008,12,08,11,47,6.80
2008,12,08,11,48,6.90
2008,12,08,11,49,6.90
2008,12,08,11,50,6.90
2008,12,08,11,51,6.90
2008,12,08,11,52,6.90
2008,12,08,11,53,6.90
2008,12,08,11,54,6.90
2008,12,08,11,55,6.90
2008,12,08,11,56,6.90
2008,12,08,11,57,6.90
2008,12,08,11,58,6.90
2008,12,08,11,59,6.90
2008,12,08,12,00,7.00
2008,12,08,12,01,6.90
2008,12,08,12,02,7.00
2008,12,08,12,03,7.00
2008,12,08,12,04,7.00
2008,12,08,12,05,7.00
2008,12,08,12,06,7.00
2008,12,08,12,07,7.00
2008,12,08,12,08,7.00
2008,12,08,12,09,7.00
2008,12,08,12,10,7.00
2008,12,08,12,11,7.00
2008,12,08,12,12,7.00
2008,12,08,12,13,7.00
2008,12,08,12,14,7.00
2008,12,08,12,15,7.00
2008,12,08,12,16,7.00
2008,12,08,12,17,7.00
2008,12,08,12,18,7.00
2008,12,08,12,19,7.10
2008,12,08,12,20,7.10
2008,12,08,12,21,7.10
2008,12,08,12,22,7.10
2008,12,08,12,23,7.10
2008,12,08,12,24,7.10
2008,12,08,12,25,7.10
2008,12,08,12,26,7.20
2008,12,08,12,27,7.20
2008,12,08,12,28,7.20
2008,12,08,12,29,7.20
2008,12,08,12,30,7.20
2008,12,08,12,31,7.20
2008,12,08,12,32,7.20
2008,12,08,12,33,7.20
2008,12,08,12,34,7.20
2008,12,08,12,35,7.20
2008,12,08,12,36,7.20
2008,12,08,12,37,7.20
2008,12,08,12,38,7.20
2008,12,08,12,39,7.20
2008,12,08,12,40,7.20
2008,12,08,12,41,7.20
2008,12,08,12,42,7.20
2008,12,08,12,43,7.20
2008,12,08,12,44,7.20
2008,12,08,12,45,7.20
2008,12,08,12,46,7.30
2008,12,08,12,47,7.30
2008,12,08,12,48,7.30
2008,12,08,12,49,7.30
2008,12,08,12,50,7.30
2008,12,08,12,51,7.40
2008,12,08,12,52,7.40
2008,12,08,12,53,7.40
2008,12,08,12,54,7.40
2008,12,08,12,55,7.40
2008,12,08,12,56,7.40
2008,12,08,12,57,7.40
2008,12,08,12,58,7.40
2008,12,08,12,59,7.40
2008,12,08,13,00,7.40
2008,12,08,13,01,7.40
2008,12,08,13,02,7.40
2008,12,08,13,03,7.40
2008,12,08,13,04,7.40
2008,12,08,13,05,7.30
2008,12,08,13,06,7.30
2008,12,08,13,07,7.30
2008,12,08,13,08,7.30
2008,12,08,13,09,7.30
2008,12,08,13,10,7.30
2008,12,08,13,11,7.30
2008,12,08,13,12,7.30
2008,12,08,13,13,7.30
2008,12,08,13,14,7.30
2008,12,08,13,15,7.30
2008,12,08,13,16,7.30
2008,12,08,13,17,7.30
2008,12,08,13,18,7.30
2008,12,08,13,19,7.30
2008,12,08,13,20,7.30
2008,12,08,13,21,7.30
2008,12,08,13,22,7.30
2008,12,08,13,23,7.30
2008,12,08,13,24,7.30
2008,12,08,13,25,7.30
2008,12,08,13,26,7.30
2008,12,08,13,27,7.30
2008,12,08,13,28,7.30
2008,12,08,13,29,7.30
2008,12,08,13,30,7.30
2008,12,08,13,31,7.30
2008,12,08,13,32,7.30
2008,12,08,13,33,7.30
2008,12,08,13,34,7.30
2008,12,08,13,35,7.30
2008,12,08,13,36,7.30
2008,12,08,13,37,7.30
2008,12,08,13,38,7.30
2008,12,08,13,39,7.30
2008,12,08,13,40,7.30
2008,12,08,13,41,7.30
2008,12,08,13,42,7.30
2008,12,08,13,43,7.30
2008,12,08,13,44,7.30
2008,12,08,13,45,7.30
2008,12,08,13,46,7.30
2008,12,08,13,47,7.30
2008,12,08,13,48,7.30
2008,12,08,13,49,7.30
2008,12,08,13,50,7.30
2008,12,08,13,51,7.30
2008,12,08,13,52,7.30
2008,12,08,13,53,7.30
2008,12,08,13,54,7.30
2008,12,08,13,55,7.30
2008,12,08,13,56,7.40
2008,12,08,13,57,7.40
2008,12,08,13,58,7.40
2008,12,08,13,59,7.40
2008,12,08,14,00,7.40
2008,12,08,14,01,7.40
2008,12,08,14,02,7.40
2008,12,08,14,03,7.40
2008,12,08,14,04,7.40
2008,12,08,14,05,7.40
2008,12,08,14,06,7.40
2008,12,08,14,07,7.40
2008,12,08,14,08,7.50
2008,12,08,14,09,7.50
2008,12,08,14,10,7.50
2008,12,08,14,11,7.50
2008,12,08,14,12,7.60
2008,12,08,14,13,7.60
2008,12,08,14,14,7.60
2008,12,08,14,15,7.60
2008,12,08,14,16,7.60
2008,12,08,14,17,7.60
2008,12,08,14,18,7.70
2008,12,08,14,19,7.70
2008,12,08,14,20,7.70
2008,12,08,14,21,7.70
2008,12,08,14,22,7.70
2008,12,08,14,23,7.80
2008,12,08,14,24,7.80
2008,12,08,14,25,7.80
2008,12,08,14,26,7.80
2008,12,08,14,27,7.80
2008,12,08,14,28,7.80
2008,12,08,14,29,7.80
2008,12,08,14,30,7.90
2008,12,08,14,31,7.90
2008,12,08,14,32,7.90
2008,12,08,14,33,7.90
2008,12,08,14,34,7.90
2008,12,08,14,35,7.90
2008,12,08,14,36,7.90
2008,12,08,14,37,7.90
2008,12,08,14,38,7.90
2008,12,08,14,39,7.90
2008,12,08,14,40,7.90
2008,12,08,14,41,7.90
2008,12,08,14,42,7.90
2008,12,08,14,43,7.90
2008,12,08,14,44,7.90
2008,12,08,14,45,7.90
2008,12,08,14,46,7.90
2008,12,08,14,47,7.90
2008,12,08,14,48,7.90
2008,12,08,14,49,7.90
2008,12,08,14,50,7.90
2008,12,08,14,51,7.90
2008,12,08,14,52,7.90
2008,12,08,14,53,7.90
2008,12,08,14,54,7.90
2008,12,08,14,55,7.90
2008,12,08,14,56,7.90
2008,12,08,14,57,7.90
2008,12,08,14,58,7.90
2008,12,08,14,59,7.90
2008,12,08,15,00,7.90
2008,12,08,15,01,7.90
2008,12,08,15,02,7.90
2008,12,08,15,03,7.90
2008,12,08,15,04,7.90
2008,12,08,15,05,7.90
2008,12,08,15,06,7.90
2008,12,08,15,07,7.90
2008,12,08,15,08,7.90
2008,12,08,15,09,7.90
2008,12,08,15,10,7.90
2008,12,08,15,11,7.90
2008,12,08,15,12,7.90
2008,12,08,15,13,7.90
2008,12,08,15,14,7.90
2008,12,08,15,15,7.90
2008,12,08,15,16,7.90
2008,12,08,15,17,7.90
2008,12,08,15,18,7.90
2008,12,08,15,19,7.90
2008,12,08,15,20,7.90
2008,12,08,15,21,7.90
2008,12,08,15,22,7.90
2008,12,08,15,23,7.90
2008,12,08,15,24,7.80
2008,12,08,15,25,7.80
2008,12,08,15,26,7.80
2008,12,08,15,27,7.80
2008,12,08,15,28,7.80
2008,12,08,15,29,7.70
2008,12,08,15,30,7.70
2008,12,08,15,31,7.70
2008,12,08,15,32,7.70
2008,12,08,15,33,7.60
2008,12,08,15,34,7.60
2008,12,08,15,35,7.60
2008,12,08,15,36,7.60
2008,12,08,15,37,7.60
2008,12,08,15,38,7.50
2008,12,08,15,39,7.50
2008,12,08,15,40,7.50
2008,12,08,15,41,7.40
2008,12,08,15,42,7.40
2008,12,08,15,43,7.40
2008,12,08,15,44,7.40
2008,12,08,15,45,7.40
2008,12,08,15,46,7.40
2008,12,08,15,47,7.40
2008,12,08,15,48,7.30
2008,12,08,15,49,7.30
2008,12,08,15,50,7.30
2008,12,08,15,51,7.30
2008,12,08,15,52,7.30
2008,12,08,15,53,7.30
2008,12,08,15,54,7.20
2008,12,08,15,55,7.20
2008,12,08,15,56,7.20
2008,12,08,15,57,7.20
2008,12,08,15,58,7.20
2008,12,08,15,59,7.20
2008,12,08,16,00,7.20
2008,12,08,16,01,7.20
2008,12,08,16,02,7.20
2008,12,08,16,03,7.20
2008,12,08,16,04,7.10
2008,12,08,16,05,7.10
2008,12,08,16,06,7.10
2008,12,08,16,07,7.10
2008,12,08,16,08,7.10
2008,12,08,16,09,7.10
2008,12,08,16,10,7.10
2008,12,08,16,11,7.10
2008,12,08,16,12,7.10
2008,12,08,16,13,7.10
2008,12,08,16,14,7.00
2008,12,08,16,15,7.00
2008,12,08,16,16,7.00
2008,12,08,16,17,7.00
2008,12,08,16,18,7.00
2008,12,08,16,19,7.00
2008,12,08,16,20,7.00
2008,12,08,16,21,6.90
2008,12,08,16,22,6.90
2008,12,08,16,23,6.90
2008,12,08,16,24,6.90
2008,12,08,16,25,6.90
2008,12,08,16,26,6.90
2008,12,08,16,27,6.90
2008,12,08,16,28,6.80
2008,12,08,16,29,6.80
2008,12,08,16,30,6.80
2008,12,08,16,31,6.80
2008,12,08,16,32,6.80
2008,12,08,16,33,6.80
2008,12,08,16,34,6.80
2008,12,08,16,35,6.80
2008,12,08,16,36,6.80
2008,12,08,16,37,6.80
2008,12,08,16,38,6.80
2008,12,08,16,39,6.80
2008,12,08,16,40,6.80
2008,12,08,16,41,6.80
2008,12,08,16,42,6.80
2008,12,08,16,43,6.80
2008,12,08,16,44,6.80
2008,12,08,16,45,6.80
2008,12,08,16,46,6.80
2008,12,08,16,47,6.80
2008,12,08,16,48,6.80
2008,12,08,16,49,6.80
2008,12,08,16,50,6.80
2008,12,08,16,51,6.80
2008,12,08,16,52,6.80
2008,12,08,16,53,6.80
2008,12,08,16,54,6.80
2008,12,08,16,55,6.80
2008,12,08,16,56,6.80
2008,12,08,16,57,6.80
2008,12,08,16,58,6.80
2008,12,08,16,59,6.80
2008,12,08,17,00,6.80
2008,12,08,17,01,6.80
2008,12,08,17,02,6.80
2008,12,08,17,03,6.80
2008,12,08,17,04,6.80
2008,12,08,17,05,6.80
2008,12,08,17,06,6.80
2008,12,08,17,07,6.80
2008,12,08,17,08,6.80
2008,12,08,17,09,6.70
2008,12,08,17,10,6.70
2008,12,08,17,11,6.70
2008,12,08,17,12,6.70
2008,12,08,17,13,6.70
2008,12,08,17,14,6.70
2008,12,08,17,15,6.70
2008,12,08,17,16,6.70
2008,12,08,17,17,6.70
2008,12,08,17,18,6.70
2008,12,08,17,19,6.60
2008,12,08,17,20,6.60
2008,12,08,17,21,6.70
2008,12,08,17,22,6.70
2008,12,08,17,23,6.70
2008,12,08,17,24,6.70
2008,12,08,17,25,6.70
2008,12,08,17,26,6.70
2008,12,08,17,27,6.70
2008,12,08,17,28,6.70
2008,12,08,17,29,6.70
2008,12,08,17,30,6.70
2008,12,08,17,31,6.70
2008,12,08,17,32,6.70
2008,12,08,17,33,6.70
2008,12,08,17,34,6.70
2008,12,08,17,35,6.60
2008,12,08,17,36,6.60
2008,12,08,17,37,6.60
2008,12,08,17,38,6.60
2008,12,08,17,39,6.60
2008,12,08,17,40,6.60
2008,12,08,17,41,6.60
2008,12,08,17,42,6.60
2008,12,08,17,43,6.60
2008,12,08,17,44,6.60
2008,12,08,17,45,6.50
2008,12,08,17,46,6.50
2008,12,08,17,47,6.50
2008,12,08,17,48,6.50
2008,12,08,17,49,6.50
2008,12,08,17,50,6.40
2008,12,08,17,51,6.40
2008,12,08,17,52,6.40
2008,12,08,17,53,6.40
2008,12,08,17,54,6.30
2008,12,08,17,55,6.30
2008,12,08,17,56,6.30
2008,12,08,17,57,6.30
2008,12,08,17,58,6.20
2008,12,08,17,59,6.20
2008,12,08,18,00,6.20
2008,12,08,18,01,6.20
2008,12,08,18,02,6.10
2008,12,08,18,03,6.10
2008,12,08,18,04,6.10
2008,12,08,18,05,6.00
2008,12,08,18,06,6.00
2008,12,08,18,07,5.90
2008,12,08,18,08,5.90
2008,12,08,18,09,5.90
2008,12,08,18,10,5.80
2008,12,08,18,11,5.80
2008,12,08,18,12,5.80
2008,12,08,18,13,5.80
2008,12,08,18,14,5.80
2008,12,08,18,15,5.80
2008,12,08,18,16,5.80
2008,12,08,18,17,5.80
2008,12,08,18,18,5.80
2008,12,08,18,19,5.80
2008,12,08,18,20,5.80
2008,12,08,18,21,5.90
2008,12,08,18,22,5.90
2008,12,08,18,23,5.90
2008,12,08,18,24,5.90
2008,12,08,18,25,6.00
2008,12,08,18,26,6.00
2008,12,08,18,27,6.00
2008,12,08,18,28,6.00
2008,12,08,18,29,6.10
2008,12,08,18,30,6.10
2008,12,08,18,31,6.10
2008,12,08,18,32,6.10
2008,12,08,18,33,6.10
2008,12,08,18,34,6.10
2008,12,08,18,35,6.10
2008,12,08,18,36,6.10
2008,12,08,18,37,6.10
2008,12,08,18,38,6.10
2008,12,08,18,39,6.00
2008,12,08,18,40,6.00
2008,12,08,18,41,6.00
2008,12,08,18,42,5.90
2008,12,08,18,43,5.90
2008,12,08,18,44,5.90
2008,12,08,18,45,5.90
2008,12,08,18,46,5.90
2008,12,08,18,47,5.80
2008,12,08,18,48,5.80
2008,12,08,18,49,5.80
2008,12,08,18,50,5.80
2008,12,08,18,51,5.70
2008,12,08,18,52,5.70
2008,12,08,18,53,5.70
2008,12,08,18,54,5.70